Dewpoint
71 73 74 73 73 75 76 76 77 78 77 77 76 75 75 75 75 75 74 74 74 74 73 73 73 73 73 72 72 71 71 71 71 72 72 73 73 73 71 72 71 68 72
71 72 74 74 75 76 77 77 77 77 76 76 76 75 75 75 75 74 74 74 74 74 73 72 73 73 73 73 72 72 72 70 69 71 71 72 73 73 72 73 72 70 73
70 72 72 75 76 76 76 77 76 75 75 76 75 75 75 74 74 74 74 74 74 73 73 73 73 73 72 72 72 72 72 71 69 71 72 68 69 72 72 73 73 72 72
69 70 72 76 76 75 76 76 76 74 75 75 75 75 74 74 74 74 73 73 73 72 72 73 73 72 72 72 72 71 71 71 69 71 69 68 68 72 71 73 73 72 72
69 69 74 76 76 75 75 75 76 75 75 75 75 75 74 74 74 73 73 73 73 73 73 72 72 72 72 71 71 71 71 72 71 68 70 70 68 71 71 71 72 73 72
68 69 74 76 75 75 75 75 75 75 75 75 75 74 74 74 73 73 73 73 73 73 73 72 72 71 71 71 71 71 72 73 72 68 70 71 69 70 71 72 72 73 73
67 70 72 76 76 75 75 75 74 74 74 74 74 74 74 73 73 73 73 73 74 73 72 72 72 72 71 71 71 71 72 72 72 70 69 68 69 73 72 73 72 73 73
67 70 71 75 76 75 75 75 74 74 74 74 74 74 73 73 73 72 72 73 73 73 72 71 71 71 71 71 72 72 72 72 70 69 69 69 71 72 73 72 71 73 73
69 70 71 71 73 74 74 74 74 74 74 74 74 74 73 73 72 72 72 72 72 71 71 72 71 71 71 72 72 72 73 72 70 69 65 67 72 72 72 71 70 72 73
69 71 72 72 71 72 72 74 74 74 74 74 74 73 73 73 72 72 73 73 72 71 71 71 71 71 71 72 72 71 72 71 68 69 68 69 72 73 71 72 70 72 72
69 69 70 70 72 73 72 72 74 74 74 74 73 73 73 73 73 72 73 73 72 72 72 72 71 72 71 72 73 71 69 63 66 68 68 72 72 71 71 73 72 71 72
68 69 69 69 70 72 70 73 73 72 71 72 73 74 73 73 73 72 73 74 74 73 73 72 73 72 71 69 69 73 70 67 66 69 68 72 72 71 71 72 72 72 72
67 67 68 70 71 71 71 72 72 71 71 72 75 74 73 72 73 71 72 72 72 72 71 71 71 71 71 70 71 70 71 69 68 67 70 72 72 70 70 71 71 72 72
67 68 69 72 73 73 71 71 72 70 71 70 71 74 72 70 72 73 72 73 73 73 74 72 71 73 72 72 71 71 70 69 68 65 69 71 73 73 71 71 73 71 72
66 67 69 72 73 74 74 72 72 72 69 69 71 71 70 70 74 73 74 73 73 73 73 74 72 72 73 71 72 71 69 70 69 67 68 73 73 72 72 72 72 72 72
66 67 69 71 73 74 73 74 73 72 71 71 69 70 72 71 74 72 73 72 72 73 73 73 76 73 72 70 69 71 71 70 71 69 67 69 72 72 72 71 72 72 72
65 67 68 70 72 74 74 73 72 71 69 69 68 71 71 72 74 75 73 72 71 74 74 74 75 74 66 62 64 70 70 71 70 69 69 69 68 72 71 71 72 72 72
65 67 69 68 70 72 73 73 71 69 69 68 68 69 72 73 75 75 72 72 73 73 76 76 72 70 64 63 65 63 65 69 71 70 70 69 68 65 70 73 73 72 71
68 68 69 70 69 72 73 72 72 71 69 68 69 71 74 74 74 74 72 72 74 72 73 73 71 69 64 64 61 63 65 65 66 60 68 70 70 68 67 71 72 73 70
68 70 71 70 71 72 72 72 70 69 69 70 70 71 74 74 75 75 73 73 73 72 72 71 72 68 65 64 58 62 64 64 66 65 66 65 67 67 68 71 69 68 71
68 70 71 71 73 71 70 69 68 66 68 70 71 74 74 74 75 76 74 73 73 76 73 74 71 69 65 66 62 62 63 64 65 65 66 66 68 68 70 71 70 72 68
68 69 71 72 73 72 70 70 68 69 69 70 72 74 74 74 75 74 75 73 74 72 74 73 71 66 63 65 61 62 56 60 63 63 67 66 66 66 66 67 69 71 72
67 70 71 73 74 73 73 71 71 71 71 70 70 72 72 74 74 75 74 73 74 74 71 73 71 69 61 65 65 61 58 55 59 63 65 67 69 66 63 65 68 70 70
67 68 71 72 74 73 74 72 73 68 68 69 70 71 72 74 74 74 75 75 75 72 73 72 70 68 66 62 65 65 65 64 56 57 61 63 66 65 66 63 65 68 67
66 66 69 72 73 74 74 74 71 71 69 69 70 74 75 75 74 74 75 75 75 73 74 73 71 69 65 63 62 63 65 63 65 60 56 59 63 63 64 63 62 65 65
64 66 67 71 73 74 74 74 74 73 72 69 71 70 70 70 71 75 74 75 75 74 74 73 72 70 68 65 62 64 60 59 59 60 59 61 59 61 61 62 62 62 64
Lifted_Index
-1 -2 -2 -3 -4 -5 -6 -6 -6 -7 -6 -6 -6 -6 -6 -6 -6 -6 -6 -6 -6 -5 -5 -5 -5 -5 -5 -4 -3 -3 -3 -2 -3 -3 -3 -4 -4 -4 -4 -4 -4 -4 -4
-1 -2 -3 -4 -5 -5 -6 -6 -6 -6 -6 -6 -6 -6 -6 -6 -6 -6 -6 -6 -6 -6 -5 -5 -5 -5 -5 -4 -4 -3 -3 -3 -2 -3 -3 -4 -4 -4 -4 -4 -4 -4 -4
-2 -2 -3 -4 -5 -5 -6 -6 -6 -6 -6 -6 -6 -6 -6 -6 -6 -6 -6 -6 -6 -5 -5 -5 -5 -5 -5 -4 -4 -4 -4 -3 -2 -3 -3 -3 -3 -4 -4 -4 -5 -4 -4
-2 -2 -4 -5 -5 -5 -5 -6 -5 -5 -5 -6 -6 -6 -6 -6 -6 -6 -6 -5 -5 -5 -5 -5 -5 -5 -5 -5 -4 -4 -4 -3 -3 -3 -3 -3 -3 -3 -4 -4 -4 -4 -4
-2 -3 -4 -5 -5 -5 -5 -5 -6 -6 -6 -6 -6 -6 -6 -6 -5 -5 -5 -5 -5 -5 -5 -5 -5 -5 -5 -5 -5 -5 -5 -4 -4 -3 -3 -3 -3 -3 -3 -4 -4 -4 -4
-2 -3 -4 -5 -5 -5 -5 -6 -6 -6 -6 -6 -6 -6 -5 -5 -5 -5 -6 -6 -6 -5 -5 -5 -5 -5 -5 -5 -5 -5 -5 -5 -5 -4 -3 -3 -3 -3 -3 -4 -4 -4 -4
-2 -3 -4 -5 -5 -5 -6 -6 -6 -6 -6 -6 -6 -5 -5 -5 -5 -5 -6 -6 -6 -5 -5 -5 -5 -5 -4 -4 -5 -5 -5 -5 -5 -4 -3 -3 -3 -3 -4 -4 -4 -4 -5
-2 -3 -4 -4 -5 -5 -6 -6 -6 -5 -5 -5 -5 -5 -5 -5 -5 -5 -5 -5 -5 -5 -5 -5 -5 -5 -4 -5 -5 -5 -5 -5 -5 -4 -3 -3 -3 -4 -4 -4 -4 -4 -4
-2 -3 -3 -4 -4 -5 -5 -5 -5 -5 -5 -5 -5 -5 -5 -5 -5 -5 -5 -5 -5 -5 -5 -5 -5 -5 -5 -5 -5 -5 -4 -4 -4 -4 -3 -3 -4 -4 -4 -4 -3 -4 -4
-2 -3 -3 -3 -4 -4 -4 -5 -5 -5 -5 -5 -5 -5 -5 -5 -5 -5 -5 -5 -5 -5 -5 -5 -5 -4 -4 -5 -5 -4 -4 -4 -4 -4 -3 -4 -4 -5 -4 -4 -4 -4 -4
-2 -2 -3 -3 -3 -4 -4 -4 -4 -4 -5 -5 -5 -5 -5 -5 -5 -5 -5 -5 -5 -5 -5 -5 -5 -5 -4 -5 -5 -4 -3 -3 -3 -3 -3 -4 -4 -5 -5 -5 -4 -4 -5
-2 -2 -2 -3 -3 -3 -3 -4 -4 -4 -4 -4 -5 -5 -5 -5 -5 -5 -5 -5 -5 -5 -4 -4 -5 -5 -5 -5 -5 -5 -4 -3 -3 -3 -3 -4 -4 -4 -4 -5 -5 -5 -5
-1 -2 -2 -3 -3 -3 -3 -4 -4 -4 -3 -4 -4 -4 -4 -4 -4 -5 -5 -5 -5 -5 -5 -5 -4 -5 -5 -5 -5 -5 -5 -4 -3 -3 -3 -4 -4 -4 -4 -4 -5 -5 -5
-1 -2 -2 -3 -3 -3 -3 -4 -4 -3 -3 -3 -3 -4 -4 -4 -4 -5 -5 -5 -5 -5 -5 -5 -4 -5 -5 -5 -5 -5 -4 -4 -3 -3 -3 -4 -4 -5 -4 -4 -5 -5 -5
-1 -1 -2 -3 -4 -4 -4 -4 -4 -3 -3 -3 -3 -3 -3 -4 -4 -5 -5 -5 -5 -5 -5 -5 -4 -4 -4 -4 -4 -4 -4 -4 -3 -3 -3 -4 -4 -5 -5 -5 -5 -5 -5
-1 -1 -2 -3 -3 -4 -4 -4 -3 -3 -3 -2 -2 -3 -3 -3 -4 -5 -5 -5 -5 -5 -5 -4 -4 -4 -3 -3 -3 -3 -4 -3 -3 -3 -3 -4 -4 -4 -4 -4 -5 -5 -5
-0 -1 -2 -2 -3 -3 -4 -3 -3 -2 -2 -2 -2 -2 -3 -4 -4 -5 -5 -5 -5 -5 -5 -5 -4 -4 -2 -1 -1 -2 -3 -3 -3 -3 -3 -3 -3 -4 -4 -4 -4 -4 -5
-1 -1 -1 -2 -3 -3 -3 -3 -2 -2 -2 -2 -2 -3 -3 -4 -4 -5 -5 -5 -5 -5 -5 -5 -4 -3 -2 -0 0 -0 -1 -2 -3 -3 -3 -4 -4 -3 -3 -4 -4 -4 -4
-1 -1 -2 -2 -2 -3 -3 -3 -2 -2 -2 -2 -2 -3 -4 -5 -5 -5 -4 -4 -4 -4 -4 -4 -4 -3 -1 -0 1 0 -0 -1 -1 -2 -3 -3 -3 -3 -3 -4 -4 -4 -4
-2 -2 -2 -2 -2 -2 -2 -2 -2 -2 -2 -2 -3 -4 -4 -5 -5 -5 -4 -4 -4 -4 -4 -4 -3 -2 -1 0 1 0 -0 -1 -1 -1 -2 -3 -3 -3 -4 -4 -4 -4 -4
-2 -2 -3 -3 -3 -3 -2 -2 -2 -1 -2 -3 -4 -4 -5 -5 -5 -5 -4 -4 -4 -4 -4 -4 -3 -2 -1 0 1 1 -0 -1 -1 -2 -2 -3 -3 -3 -4 -4 -4 -4 -4
-2 -3 -3 -3 -3 -3 -2 -2 -2 -2 -2 -3 -4 -4 -4 -5 -5 -5 -5 -4 -4 -4 -4 -4 -3 -2 -1 1 1 1 0 -0 -1 -2 -2 -3 -3 -3 -3 -3 -4 -4 -4
-3 -3 -3 -4 -4 -3 -3 -3 -2 -2 -3 -3 -3 -4 -4 -5 -5 -5 -5 -5 -5 -5 -4 -4 -3 -2 -1 1 1 1 1 0 -0 -1 -2 -2 -3 -2 -2 -2 -2 -3 -3
-3 -3 -3 -3 -3 -3 -3 -3 -3 -3 -3 -3 -4 -4 -4 -5 -5 -5 -5 -5 -5 -5 -4 -4 -3 -2 -1 0 1 1 1 1 0 -0 -1 -2 -2 -2 -1 -1 -1 -2 -2
-2 -2 -2 -2 -3 -3 -3 -3 -3 -3 -3 -3 -3 -4 -4 -5 -5 -5 -5 -5 -5 -5 -5 -4 -3 -2 -1 0 1 1 1 1 0 -0 -1 -1 -1 -1 -1 -0 -0 -1 -1
-1 -1 -1 -2 -2 -3 -3 -3 -3 -3 -3 -3 -3 -4 -4 -5 -5 -5 -5 -5 -5 -5 -5 -4 -3 -2 -1 1 1 1 1 1 0 -0 -1 -1 -1 -0 -0 0 1 0 -0